Flag Weather past 2 weeks in Hamilton, Ontario, Canada

Now
32 °F

Overcast.


Feels Like: 22 °F
Forecast: 30 / 36 °F
Wind: 14 mph from East

Location: Hamilton Airport

Current Time: Nov 26, 2014 at 1:01:15 PM

Latest Report: Nov 26, 2014 at 12:00 PM


Visibility: 15 mi

Pressure: 30.17 "Hg

Humidity: 75%

Dew point: 25 °F

Location of HamiltonLocation

Historic Weather in Hamilton — Graph

°F

Hamilton temperature yesterday

Maximum temperature yesterday: 39 °F (at 12:00 AM)
Minimum temperature yesterday: 32 °F (at 3:00 PM)
Average temperature yesterday: 35 °F

Past Weeks' High & Low Weather Summary

 TemperatureHumidityPressure
High63 °F (Nov 11, 3:00 PM)100% (Nov 16, 7:00 PM)30.47 "Hg (Nov 16, 7:00 PM)
Low9 °F (Nov 19, 6:00 AM)45% (Nov 11, 3:00 PM)29.17 "Hg (Nov 24, 12:00 PM)
Average31 °F77%29.97 "Hg
* Reported Nov 11 12:00 Noon — Nov 26 12:00 Noon, Hamilton, Weather by CustomWeather, © 2014

Note: Actual official high and low records may vary slightly from our data, if they occured in-between our weather recording intervals... More about our weather records

Advertising

Hamilton weather history for previous 24 hours

 ConditionsComfort  
Time TempWeatherWind HumidityBarometerVisibility
12:00 PM
Nov 26
32 °FOvercast.14 mph75%30.17 "Hg15 mi
11:00 AM32 °FMostly cloudy.12 mph75%30.16 "Hg15 mi
10:00 AM32 °FMostly cloudy.7 mph75%30.18 "Hg15 mi
9:00 AM30 °FOvercast.3 mph86%30.21 "Hg15 mi
8:00 AM30 °FOvercast.2 mph80%30.21 "Hg15 mi
7:00 AM30 °FOvercast.2 mph80%30.19 "Hg15 mi
6:00 AM30 °FOvercast.No wind75%30.22 "Hg15 mi
5:00 AM30 °FOvercast.2 mph80%30.21 "Hg15 mi
4:00 AM30 °FOvercast.3 mph75%30.23 "Hg15 mi
3:00 AM30 °FOvercast.2 mph75%30.19 "Hg15 mi
2:00 AM30 °FOvercast.5 mph75%30.21 "Hg15 mi
1:00 AM30 °FOvercast.5 mph75%30.21 "Hg15 mi
12:00 AM32 °FOvercast.9 mph69%30.23 "Hg15 mi
11:00 PM
Nov 25
32 °FOvercast.10 mph69%30.22 "Hg15 mi
10:00 PM32 °FOvercast.12 mph69%30.19 "Hg15 mi
9:00 PM32 °FOvercast.12 mph75%30.17 "Hg15 mi
8:00 PM32 °FOvercast.14 mph75%30.15 "Hg12 mi
7:00 PM32 °FOvercast.15 mph75%30.12 "Hg12 mi
6:00 PM32 °FOvercast.14 mph75%30.08 "Hg10 mi
5:00 PM32 °FOvercast.16 mph75%30.06 "Hg10 mi
4:00 PM32 °FMostly cloudy.15 mph75%30.03 "Hg12 mi
3:00 PM32 °FMostly cloudy.24 mph75%30.00 "Hg15 mi
2:00 PM34 °FMostly cloudy.23 mph70%29.97 "Hg15 mi
1:00 PM34 °FMostly cloudy.21 mph75%29.95 "Hg15 mi
Weather by CustomWeather, © 2014

See weather overviewHow to use our weather pages